Location: Champs
(48.8539°N, 2.6040°E)
Time: 23:40:31
(UTC+00:00)

DMSP 5D-2 F13 DEB - Pass Details

Date: 16 August 2022
Orbit: 710 x 774 km, 98.8° (Epoch: 28 September)

Event Time Altitude Azimuth Distance (km) Brightness Sun altitude
Exits shadow 23:32:28 56° 274° (W) 919 ? -27.5°
Drops below altitude 10° 23:37:17 10° 338° (NNW) 2,346 ? -27.5°
Sets 23:39:40 0° 342° (NNW) 3,280 ? -27.6°
